Location: Larkspur
(54.4391°N, 113.7691°W)
Time: 01:40:27
(UTC+00:00)

YUBILEINY - Pass Details

Date: 03 December 2023
Orbit: 1479 x 1508 km, 82.5° (Epoch: 03 March)

Event Time Altitude Azimuth Distance (km) Brightness Sun altitude
Rises 03:42:43 0° 347° (NNW) 4,639 ? -37.7°
Reaches altitude 10° 03:45:39 10° 349° (N) 3,652 ? -38.1°
Enters shadow 03:51:28 47° 2° (N) 1,910 ? -38.9°
